Terminal Aerodrome Forecast
Issued by NWS

Home | Current Version | Previous Version | Text Only | Print | Product List | Glossary On
Versions: 1 2 3 4 5 6 7 8 9 10 11 12 13 14 15 16 17
000
FTUS42 KMLB 231454 AAA
TAFFPR
TAF AMD
KFPR 231454Z 2315/2412 09006KT P6SM VCSH FEW019 OVC110
      TEMPO 2315/2318 -SHRA BKN070
     FM231800 09010KT P6SM VCTS SCT030CB SCT060
     FM232100 11009KT P6SM SCT030 SCT100 BKN250
     FM240000 13006KT P6SM VCSH FEW030 SCT120 BKN250
     FM240600 13003KT P6SM VCSH SCT020 BKN250=

USA.gov is the U.S. government's official web portal to all federal, state and local government web resources and services.